Weather History for Kelso-Longview, WA

Change the Weather History Date:

Monday, February 24, 2014

  Actual Average Record
Temperature  
Mean Temperature 46 °F -  
Max Temperature 48 °F 49 °F 64 °F (2005)
Min Temperature 42 °F 33 °F 19 °F (2003)
Degree Days  
Heating Degree Days 19    
Moisture  
Dew Point 42 °F    
Average Humidity 84    
Maximum Humidity 87    
Minimum Humidity 71    
Precipitation  
Precipitation 0.13 in - - ()
Sea Level Pressure  
Sea Level Pressure 30.05 in    
Wind  
Wind Speed 6 mph (SSE)    
Max Wind Speed 13 mph    
Max Gust Speed 18 mph    
Visibility 10 miles    
Events      
Averages and records for this station are not official NWS values.
T = Trace of Precipitation, MM = Missing Value Source: NWS Daily Summary

Daily Weather History Graph

Daily Weather History Graph

Search for Another Location

Airport:

Trip Planner

Search our weather history database for the weather conditions in past years. The results will help you decide how hot, cold, wet, or windy it might be!

Date:

Astronomy

Feb. 24, 2014 Rise Set
Actual Time 6:59 AM PST 5:51 PM PST
Civil Twilight 6:28 AM PST 6:21 PM PST
Nautical Twilight 5:54 AM PST 6:56 PM PST
Astronomical Twilight 5:19 AM PST 7:30 PM PST
Moon 3:13 AM PST (2/24) 12:47 PM PST (2/24)
Length of Visible Light 11h 52m
Length of Day
10h 51m
Waning Crescent, 27% of the Moon is Illuminated
Feb 24
Waning Crescent
Mar 1
New
Mar 8
First Quarter
Mar 16
Full
Mar 23
Last Quarter

Hourly Weather History & Observations

Time (PST) Temp. Windchill Dew Point Humidity Pressure Visibility Wind Dir Wind Speed Gust Speed Precip Events Conditions
12:15 AM 46.4 °F 44.3 °F 39.2 °F 76% 30.05 in 10.0 mi South 4.6 mph - N/A   Overcast
12:35 AM 46.4 °F 42.9 °F 39.2 °F 76% 30.04 in 10.0 mi SSE 6.9 mph - N/A   Overcast
12:55 AM 46.4 °F 42.9 °F 39.2 °F 76% 30.04 in 10.0 mi SSE 6.9 mph - N/A   Overcast
1:15 AM 48.2 °F - 39.2 °F 71% 30.04 in 10.0 mi SE 8.1 mph - N/A   Overcast
1:35 AM 46.4 °F - 39.2 °F 76% 30.04 in 10.0 mi Calm Calm - N/A   Overcast
1:55 AM 46.4 °F - 39.2 °F 76% 30.05 in 10.0 mi Calm Calm - N/A   Overcast
2:15 AM 46.4 °F 44.3 °F 39.2 °F 76% 30.05 in 10.0 mi South 4.6 mph - N/A   Overcast
2:35 AM 46.4 °F 43.5 °F 41.0 °F 81% 30.05 in 10.0 mi South 5.8 mph - N/A   Overcast
2:55 AM 46.4 °F 45.2 °F 41.0 °F 81% 30.04 in 10.0 mi SE 3.5 mph - N/A   Overcast
3:15 AM 46.4 °F 44.3 °F 41.0 °F 81% 30.04 in 10.0 mi South 4.6 mph - N/A   Overcast
3:35 AM 46.4 °F - 41.0 °F 81% 30.04 in 10.0 mi Calm Calm - N/A   Overcast
3:55 AM 46.4 °F 44.3 °F 41.0 °F 81% 30.03 in 10.0 mi SE 4.6 mph - N/A   Overcast
4:15 AM 46.4 °F 43.5 °F 42.8 °F 87% 30.03 in 10.0 mi SSW 5.8 mph - N/A   Overcast
4:35 AM 46.4 °F - 42.8 °F 87% 30.03 in 10.0 mi Calm Calm - N/A   Overcast
4:55 AM 46.4 °F 45.2 °F 42.8 °F 87% 30.03 in 10.0 mi South 3.5 mph - N/A   Overcast
5:15 AM 46.4 °F 45.2 °F 42.8 °F 87% 30.03 in 10.0 mi SSE 3.5 mph - N/A   Overcast
5:35 AM 46.4 °F 45.2 °F 42.8 °F 87% 30.02 in 10.0 mi SE 3.5 mph - N/A   Overcast
5:55 AM 46.4 °F - 42.8 °F 87% 30.02 in 10.0 mi Calm Calm - N/A   Overcast
6:15 AM 46.4 °F 45.2 °F 42.8 °F 87% 30.02 in 10.0 mi ESE 3.5 mph - N/A   Overcast
6:35 AM 46.4 °F 45.2 °F 42.8 °F 87% 30.02 in 10.0 mi SE 3.5 mph - N/A   Overcast
6:55 AM 46.4 °F 45.2 °F 42.8 °F 87% 30.02 in 10.0 mi SE 3.5 mph - N/A   Overcast
7:15 AM 46.4 °F 43.5 °F 42.8 °F 87% 30.03 in 9.0 mi SE 5.8 mph - N/A   Overcast
7:35 AM 46.4 °F 43.5 °F 42.8 °F 87% 30.03 in 6.0 mi SSE 5.8 mph - N/A   Overcast
7:55 AM 46.4 °F 42.9 °F 42.8 °F 87% 30.03 in 9.0 mi SSE 6.9 mph - N/A   Overcast
8:15 AM 46.4 °F 41.9 °F 42.8 °F 87% 30.02 in 10.0 mi SSE 9.2 mph - N/A   Overcast
8:35 AM 46.4 °F 41.9 °F 42.8 °F 87% 30.03 in 10.0 mi SSE 9.2 mph - N/A   Overcast
8:55 AM 46.4 °F 41.5 °F 42.8 °F 87% 30.03 in 10.0 mi SSE 10.4 mph - N/A   Overcast
9:15 AM 46.4 °F 41.5 °F 42.8 °F 87% 30.03 in 10.0 mi SSE 10.4 mph 16.1 mph N/A   Overcast
9:35 AM 46.4 °F 41.5 °F 42.8 °F 87% 30.03 in 6.0 mi SSE 10.4 mph 16.1 mph 0.01 in   Overcast
9:55 AM 46.4 °F 42.9 °F 42.8 °F 87% 30.04 in 7.0 mi SSE 6.9 mph - 0.02 in   Overcast
10:15 AM 46.4 °F 41.9 °F 42.8 °F 87% 30.04 in 10.0 mi SSE 9.2 mph - 0.01 in   Overcast
10:35 AM 46.4 °F 42.4 °F 42.8 °F 87% 30.05 in 8.0 mi SSE 8.1 mph 18.4 mph 0.03 in   Overcast
10:55 AM 46.4 °F 42.9 °F 42.8 °F 87% 30.06 in 9.0 mi SSE 6.9 mph - 0.05 in   Overcast
11:15 AM 46.4 °F 42.4 °F 42.8 °F 87% 30.06 in 10.0 mi SSE 8.1 mph - 0.01 in   Overcast
11:35 AM 46.4 °F 41.9 °F 42.8 °F 87% 30.06 in 9.0 mi SSE 9.2 mph - 0.01 in   Overcast
11:55 AM 46.4 °F 41.5 °F 42.8 °F 87% 30.06 in 10.0 mi SSE 10.4 mph 17.3 mph 0.01 in   Overcast
12:15 PM 46.4 °F 41.5 °F 42.8 °F 87% 30.06 in 10.0 mi SSE 10.4 mph 17.3 mph 0.01 in   Overcast
12:35 PM 46.4 °F 41.9 °F 42.8 °F 87% 30.06 in 10.0 mi SSE 9.2 mph - 0.01 in   Overcast
12:55 PM 46.4 °F 41.5 °F 42.8 °F 87% 30.05 in 10.0 mi SSE 10.4 mph 17.3 mph 0.01 in   Overcast
1:15 PM 46.4 °F 41.1 °F 42.8 °F 87% 30.04 in 10.0 mi SSE 11.5 mph 17.3 mph N/A   Overcast
1:35 PM 46.4 °F 41.1 °F 42.8 °F 87% 30.04 in 10.0 mi SSE 11.5 mph - N/A   Overcast
1:55 PM 46.4 °F 41.1 °F 42.8 °F 87% 30.04 in 10.0 mi SSE 11.5 mph - 0.01 in   Overcast
2:15 PM 46.4 °F 40.7 °F 42.8 °F 87% 30.05 in 10.0 mi SSE 12.7 mph - N/A   Overcast
2:35 PM 46.4 °F 41.5 °F 42.8 °F 87% 30.04 in 10.0 mi SSE 10.4 mph 16.1 mph N/A   Overcast
2:55 PM 46.4 °F 41.5 °F 42.8 °F 87% 30.05 in 10.0 mi SSE 10.4 mph - N/A   Overcast
3:15 PM 46.4 °F 41.9 °F 42.8 °F 87% 30.05 in 10.0 mi SSE 9.2 mph - N/A   Overcast
3:35 PM 46.4 °F 41.9 °F 42.8 °F 87% 30.06 in 10.0 mi SSE 9.2 mph - N/A   Overcast
3:55 PM 46.4 °F 41.9 °F 42.8 °F 87% 30.05 in 10.0 mi SSE 9.2 mph - N/A   Overcast
4:15 PM 46.4 °F 42.9 °F 42.8 °F 87% 30.06 in 10.0 mi SSE 6.9 mph - N/A   Overcast
4:35 PM 46.4 °F 41.9 °F 42.8 °F 87% 30.06 in 10.0 mi SSE 9.2 mph - N/A   Overcast
4:55 PM 46.4 °F 42.4 °F 42.8 °F 87% 30.06 in 10.0 mi SE 8.1 mph - N/A   Overcast
5:15 PM 46.4 °F 42.9 °F 42.8 °F 87% 30.06 in 10.0 mi SSE 6.9 mph - N/A   Overcast
5:35 PM 46.4 °F 43.5 °F 42.8 °F 87% 30.06 in 8.0 mi SE 5.8 mph - N/A   Overcast
5:55 PM 44.6 °F 40.2 °F 41.0 °F 87% 30.05 in 10.0 mi SE 8.1 mph - 0.01 in   Overcast
6:15 PM 44.6 °F 40.2 °F 41.0 °F 87% 30.05 in 10.0 mi SE 8.1 mph - N/A   Overcast
6:35 PM 44.6 °F 40.2 °F 41.0 °F 87% 30.05 in 10.0 mi SSE 8.1 mph - N/A   Overcast
6:55 PM 44.6 °F 41.4 °F 41.0 °F 87% 30.06 in 10.0 mi SE 5.8 mph - N/A   Overcast
7:15 PM 44.6 °F 40.2 °F 41.0 °F 87% 30.06 in 10.0 mi SSE 8.1 mph - 0.01 in   Overcast
7:35 PM 44.6 °F 40.2 °F 41.0 °F 87% 30.06 in 10.0 mi SE 8.1 mph - 0.02 in   Overcast
7:55 PM 44.6 °F 40.2 °F 39.2 °F 81% 30.06 in 10.0 mi SSE 8.1 mph - 0.02 in   Overcast
8:15 PM 44.6 °F 40.7 °F 39.2 °F 81% 30.06 in 10.0 mi SSE 6.9 mph - N/A   Overcast
8:35 PM 44.6 °F 41.4 °F 39.2 °F 81% 30.07 in 10.0 mi SSE 5.8 mph - N/A   Overcast
8:55 PM 44.6 °F 42.2 °F 39.2 °F 81% 30.08 in 10.0 mi SE 4.6 mph - N/A   Overcast
9:15 PM 44.6 °F 42.2 °F 39.2 °F 81% 30.08 in 10.0 mi SE 4.6 mph - N/A   Overcast
9:35 PM 44.6 °F 43.1 °F 39.2 °F 81% 30.08 in 10.0 mi ESE 3.5 mph - N/A   Overcast
9:55 PM 44.6 °F - 39.2 °F 81% 30.09 in 10.0 mi Calm Calm - N/A   Overcast
10:15 PM 44.6 °F - 39.2 °F 81% 30.08 in 10.0 mi Calm Calm - N/A   Overcast
10:35 PM 44.6 °F 43.1 °F 39.2 °F 81% 30.08 in 10.0 mi SE 3.5 mph - N/A   Overcast
10:55 PM 44.6 °F - 39.2 °F 81% 30.09 in 10.0 mi Calm Calm - N/A   Overcast
11:15 PM 44.6 °F 43.1 °F 39.2 °F 81% 30.09 in 10.0 mi SSE 3.5 mph - N/A   Overcast
11:35 PM 44.6 °F - 39.2 °F 81% 30.09 in 10.0 mi Calm Calm - N/A   Overcast
11:55 PM 42.8 °F 41.1 °F 39.2 °F 87% 30.09 in 10.0 mi South 3.5 mph - N/A   Overcast